Главная страница
METAR-TAF:

METAR-TAF

Аэропорты :

Penn Valley Airport

Selinsgrove, Пенсильвания, США

широта: 40-49-09N, долгота: 076-51-58W, высота над уровнем моря: 137 м

Текущие метеонаблюдения

Эта сводка был подготовлена 1 час и 12 минут назад, в 00:53 UTC
Штиль
Температура -9°C
Влажность 79%
Давление 1034 hPa
Видимость: 16.1 км
ясное небо

METAR: KSEG 230053Z AUTO 00000KT 10SM CLR M09/M12 A3052 RMK AO2 SLP347 T10891117

Время: 21:05 (02:05 UTC)


TAF: отсутствует

Метеонаблюдения и прогнозы для более 4000 аэропортов (сводки METAR и TAF).

Имеющиеся станции представлены на карте желтыми и красными точками.

Чтобы увидеть название станции, наведите на нее мышь.

Затем щелкните, чтобы увидеть метеонаблюдения и метеопрогнозы.

Управление картой: чтобы увеличить масштаб, щелкните зеленые кнопки с черным крестиком; чтобы уменьшить масштаб, щелкните зеленую кнопку с тире; для просмотра соседних карт щелкайте зеленые стрелки.


METAR-TAF: